Location: �perlecques
(50.8057°N, 2.1521°E)
Time: 17:36:24
(UTC+00:00)

JY1SAT - Visible Passes

Search period start: 28 March 2023 00:00
Search period end: 07 April 2023 00:00
Orbit: 557 x 578 km, 97.6° (Epoch: 27 March)

Date Brightness Start Highest point End Pass type
(mag) Time Alt. Az. Time Alt. Az. Time Alt. Az.
28 Mar ? 19:50:46 20° ENE 19:51:23 20° ENE 19:54:21 10° NNE visible
28 Mar ? 21:26:50 43° WNW 21:26:50 43° WNW 21:30:05 10° NNW visible
29 Mar ? 19:51:46 20° ENE 19:52:27 21° ENE 19:55:28 10° NNE visible
29 Mar ? 21:27:50 43° WNW 21:27:50 43° WNW 21:31:11 10° NNW visible
30 Mar ? 19:52:46 20° ENE 19:53:32 21° ENE 19:56:35 10° NNE visible
30 Mar ? 21:28:49 43° WNW 21:28:49 43° WNW 21:32:14 10° NNW visible
31 Mar ? 19:53:44 20° E 19:54:35 22° ENE 19:57:41 10° NNE visible
31 Mar ? 21:29:48 43° W 21:29:48 43° W 21:33:18 10° NNW visible
01 Apr ? 19:54:41 20° E 19:55:37 22° ENE 19:58:46 10° NNE visible
01 Apr ? 21:30:45 43° W 21:30:45 43° W 21:34:21 10° NNW visible
02 Apr ? 19:55:38 20° E 19:56:40 22° ENE 19:59:50 10° NNE visible
02 Apr ? 21:31:42 42° W 21:31:42 42° W 21:35:23 10° NNW visible
03 Apr ? 19:56:34 20° E 19:57:41 23° ENE 20:00:53 10° N visible
03 Apr ? 21:32:38 41° W 21:32:38 41° W 21:36:24 10° NNW visible
04 Apr ? 19:57:30 20° E 19:58:42 23° ENE 20:01:55 10° N visible
04 Apr ? 21:33:34 40° W 21:33:35 40° W 21:37:25 10° NNW visible
05 Apr ? 19:58:25 20° E 19:59:41 24° ENE 20:02:57 10° N visible
05 Apr ? 21:34:29 39° WSW 21:34:36 39° W 21:38:25 10° NNW visible
06 Apr ? 19:59:20 20° E 20:00:41 24° ENE 20:03:58 10° N visible
06 Apr ? 21:35:23 38° WSW 21:35:36 38° W 21:39:24 10° NNW visible
